Location: Bodest
(46.3000°N, 22.5667°E)
Time: 02:23:33
(UTC+00:00)

FENGYUN 1C DEB - Pass Details

Date: 03 April 2023
Orbit: 806 x 916 km, 98.8° (Epoch: 29 May)

Event Time Altitude Azimuth Distance (km) Brightness Sun altitude
Rises 18:09:38 0° 173° (S) 3,540 ? -12.3°
Reaches altitude 10° 18:12:05 10° 177° (S) 2,598 ? -12.7°
Maximum altitude 18:17:51 63° 258° (WSW) 1,007 ? -13.6°
Drops below altitude 10° 18:23:34 10° 340° (NNW) 2,572 ? -14.5°
Sets 18:25:59 0° 343° (NNW) 3,501 ? -14.9°
